Regional Weather Roundup
Issued by NWS

Home | Current Version | Previous Version | Graphics & Text | Print | Product List | Glossary On
Versions: 1 2 3 4 5 6 7 8 9 10 11 12 13 14 15 16 17 18 19 20 21 22 23 24 25 26 27 28 29 30 31 32 33 34 35 36 37 38 39 40 41 42 43 44 45 46 47 48 49 50
000
ASUS43 KBIS 191002
RWRND

NORTH DAKOTA REGIONAL WEATHER ROUNDUP
NATIONAL WEATHER SERVICE BISMARCK ND
400 AM CST MON FEB 19 2018

NOTE: "FAIR" INDICATES FEW OR NO CLOUDS BELOW 12,000 FEET WITH NO
SIGNIFICANT WEATHER AND/OR OBSTRUCTIONS TO VISIBILITY.


NDZ001>003-009>011-017-191100-
NORTHWEST NORTH DAKOTA

CITY           SKY/WX    TMP DP  RH WIND       PRES   REMARKS
WILLISTON      CLOUDY   -10 -14  82 CALM      30.16F
MINOT          CLOUDY    -4 -13  65 W6        30.16R WCI -16
MINOT AFB      CLOUDY    -9 -17  70 NW8       30.15S WCI -26
$$

NDZ018>021-031>035-040>046-191100-
SOUTHWEST NORTH DAKOTA

CITY           SKY/WX    TMP DP  RH WIND       PRES   REMARKS
BISMARCK       MOCLDY     4  -6  63 N9        30.14R WCI -10
DICKINSON      CLOUDY     1  -7  68 N5        30.06S WCI  -9
GARRISON         N/A     -6 -13  71 NW7       30.15R WCI -20
HETTINGER ARPT MOCLDY     1  -4  79 N10       30.05F WCI -15
$$

NDZ004>008-012>016-024-026-027-054-191100-
NORTHEAST NORTH DAKOTA

CITY           SKY/WX    TMP DP  RH WIND       PRES   REMARKS
GRAND FORKS    FAIR       2  -4  76 N22       30.14F WCI -20
GRND FRKS AFB  FAIR       2  -6  67 N17       30.15F WCI -18
DEVILS LAKE    FAIR      -3  -8  79 N9        30.16R WCI -19
$$

NDZ022-023-025-028>030-036>039-047>053-191100-
SOUTHEAST NORTH DAKOTA

CITY           SKY/WX    TMP DP  RH WIND       PRES   REMARKS
FARGO          FAIR       7   0  73 N18G29    30.07S WCI -12
JAMESTOWN      CLOUDY     5  -3  69 N17       30.11R WCI -14
$$




USA.gov is the U.S. government's official web portal to all federal, state and local government web resources and services.